Simultaneous Nadir Overpasses (SNOs) Predictions

Prediction of SNOs between GOES-14 and NPP Satellite Orbit:

Table of predicted SNOs for the next 14.0 days since TLE Epoch: 5/14/2022
Index Date Time (GOES-14) GOES-14 Lat,Lon NPP Lat,Lon Distance(km) Time Diff (sec)
1 05/14/2022 20:20:40 -0.08,-104.60 0.04,-104.20 46.49 80
2 05/17/2022 08:23:40 0.06,-104.44 0.18,-104.91 54.32 80
3 05/18/2022 08:07:34 0.07,-104.44 -0.84,-100.38 463.32 80
4 05/19/2022 20:29:31 -0.04,-104.61 -0.27,-105.69 123.00 80
5 05/20/2022 20:08:04 -0.06,-104.60 0.69,-101.15 393.45 80
6 05/22/2022 08:29:50 0.04,-104.43 0.48,-106.41 226.12 80
7 05/23/2022 08:13:45 0.05,-104.43 -0.54,-101.88 291.87 80
8 05/24/2022 20:35:40 -0.02,-104.63 -0.62,-107.18 291.38 80
9 05/25/2022 20:14:15 -0.04,-104.63 0.40,-102.65 225.73 80
10 05/27/2022 08:36:01 0.01,-104.44 0.77,-107.91 395.48 80
